This is the latest recevied weather packets stored in our database for station/object KF0JHJ. If no packets are shown the sender has not sent any weather packets the latest 10 day(s).
| Time | Temp. | Humidity | Pressure | Rain* | Wind** | Luminosity | Snow |
|---|---|---|---|---|---|---|---|
| 1777777966 | 15.56° C | 44% | 1007.2 hPa | - | - | 0 W/m² | - |
| 1777777662 | 15.56° C | 44% | 1007.2 hPa | - | - | 0 W/m² | - |
| 1777777359 | 15.56° C | 43% | 1007.3 hPa | - | - | 0 W/m² | - |
| 1777777056 | 15.56° C | 45% | 1007.4 hPa | - | - | 0 W/m² | - |
| 1777776753 | 15.56° C | 45% | 1007.6 hPa | - | - | 0 W/m² | - |
| 1777776450 | 15° C | 45% | 1007.7 hPa | - | - | 0 W/m² | - |
| 1777776147 | 15° C | 47% | 1007.7 hPa | - | - | 0 W/m² | - |
| 1777775844 | 15° C | 47% | 1007.7 hPa | - | - | 0 W/m² | - |
| 1777775541 | 15° C | 45% | 1007.4 hPa | - | - | 0 W/m² | - |
| 1777775237 | 15° C | 45% | 1007.6 hPa | - | - | 0 W/m² | - |
| 1777774936 | 15.56° C | 45% | 1007.8 hPa | - | - | 0 W/m² | - |
| 1777774634 | 15.56° C | 44% | 1007.6 hPa | - | - | 0 W/m² | - |
| 1777774330 | 16.11° C | 43% | 1007.8 hPa | - | - | 0 W/m² | - |
| 1777774028 | 16.11° C | 42% | 1007.8 hPa | - | - | 0 W/m² | - |
| 1777773725 | 16.11° C | 42% | 1007.7 hPa | - | - | 0 W/m² | - |
| 1777773422 | 16.67° C | 42% | 1008 hPa | - | - | 0 W/m² | - |
| 1777773118 | 16.11° C | 43% | 1007.9 hPa | - | - | 0 W/m² | - |
| 1777772814 | 16.11° C | 42% | 1008.2 hPa | - | - | 0 W/m² | - |
| 1777772512 | 16.11° C | 42% | 1008.3 hPa | - | - | 0 W/m² | - |
| 1777772209 | 16.67° C | 41% | 1008.2 hPa | - | - | 0 W/m² | - |
| 1777771907 | 16.67° C | 39% | 1008.1 hPa | - | - | 0 W/m² | - |
| 1777771604 | 16.67° C | 40% | 1008.4 hPa | - | - | 0 W/m² | - |
| 1777771301 | 16.67° C | 41% | 1008.7 hPa | - | - | 0 W/m² | - |
| 1777770997 | 16.67° C | 41% | 1008.4 hPa | - | - | 0 W/m² | - |
| 1777770695 | 16.67° C | 41% | 1008.5 hPa | - | - | 0 W/m² | - |
* Rain since midnight (hover to see other rain measurements)
** Current wind speed in m/s (hover to see current wind gust speed)